Regional Weather Roundup
Issued by NWS

Home | Current Version | Previous Version | Graphics & Text | Print | Product List | Glossary On
Versions: 1 2 3 4 5 6 7 8 9 10 11 12 13 14 15 16 17 18 19 20 21 22 23 24 25 26 27 28 29 30 31 32 33 34 35 36 37 38 39 40 41 42 43 44 45 46 47 48 49 50
000
ASUS43 KLOT 051400
RWRIL

ILLINOIS REGIONAL WEATHER ROUNDUP
NATIONAL WEATHER SERVICE CHICAGO/ROMEOVILLE IL
800 AM CST THU MAR 05 2015

NOTE: "FAIR" INDICATES FEW OR NO CLOUDS BELOW 12,000 FEET WITH NO
SIGNIFICANT WEATHER AND/OR OBSTRUCTIONS TO VISIBILITY.

* THESE STATIONS ARE NOT UNDER NWS QUALITY CONTROL. THEY ALSO MAY NOT
  REPORT WEATHER SUCH AS PRECIPITATION OR FOG.

ILZ001-002-007-009-015-016-024-051500-
NORTHWEST ILLINOIS

CITY           SKY/WX    TMP DP  RH WIND       PRES   REMARKS
MOLINE         SUNNY      2  -7  66 NW9       30.53R WCI -13
STERLING*      SUNNY      1  -6  71 NW5       30.49R WCI  -8
SAVANNA*       SUNNY     -6 -11  79 CALM      30.51R
$$

ILZ003-004-008-010-011-017-018-051500-
NORTH CENTRAL ILLINOIS

CITY           SKY/WX    TMP DP  RH WIND       PRES   REMARKS
ROCKFORD       MOSUNNY    2  -7  66 N6        30.49R WCI  -9
$$

ILZ005-006-012>014-019>023-051500-
NORTHEAST ILLINOIS

CITY           SKY/WX    TMP DP  RH WIND       PRES   REMARKS
CHICAGO-OHARE  MOSUNNY    6  -6  57 NW9       30.43R WCI  -8
CHICAGO-MIDWAY MOSUNNY   11  -5  48 NW9       30.44R WCI  -2
AURORA         SUNNY     -1  -8  72 NW6       30.46R WCI -13
WAUKEGAN       MOSUNNY    4 -10  52 NW8       30.43R WCI  -9
DUPAGE AIRPORT SUNNY      5  -7  57 N9        30.44R WCI  -9
WHEELING       SUNNY      6  -7  54 N9        30.46R WCI  -8
NORTHERLY ISL    N/A     14  -2  49 W8          N/A  WCI   3
$$

LMZ740>746-051500-
SOUTHERN LAKE MICHIGAN

STATION/POSITION SKY/WX   TEMP    WIND        PRES    VSBY  WAVE
                          AIR SEA DIR/SP/G                  HT/PER
                          (F)     (DEG/KT/KT) (MB)    (MI)  (FT/S)
WAUKEGAN HARBOR             5                   N/A
HARRISON CRIB              11     300/ 14/ 16   N/A
BURNHAM HARBOR             14     300/  6/ 11   N/A
CALUMET HARBOR             11     290/  9/ 12 1028.8R
MICHIGAN CITY              15     290/  9/ 10   N/A
$$

ILZ025>027-034>036-040-047-049-050-058-095>099-051500-
WEST-CENTRAL ILLINOIS

CITY           SKY/WX    TMP DP  RH WIND       PRES   REMARKS
QUINCY         MOSUNNY    8  -2  63 N9        30.52R WCI  -5
$$

ILZ028>032-037-038-041>044-048-051>054-059>061-051500-
CENTRAL ILLINOIS

CITY           SKY/WX    TMP DP  RH WIND       PRES   REMARKS
DECATUR        MOSUNNY   11   1  64 NW12      30.46R WCI  -3
PEORIA         SUNNY      7  -3  64 NW7       30.51R WCI  -5
SPRINGFIELD    SUNNY     12  -1  56 N9        30.50R WCI   0
TAYLORVILLE    NOT AVBL
$$

ILZ033-039-045-046-055>057-062-063-051500-
EAST-CENTRAL ILLINOIS

CITY           SKY/WX    TMP DP  RH WIND       PRES   REMARKS
CHAMPAIGN      MOSUNNY    7  -1  70 NW10      30.44R WCI  -8
MATTOON        PTSUNNY   10   2  69 NW9       30.43R WCI  -3
$$

ILZ079-100>102-051500-
SOUTHWEST ILLINOIS

CITY           SKY/WX    TMP DP  RH WIND       PRES   REMARKS
BELLEVILLE     MOSUNNY   17   2  52 N12       30.49R WCI   4
CAHOKIA*       MOSUNNY   18   4  54 N12       30.51R WCI   5
$$

ILZ064>066-069>071-074>076-080>082-084>086-088>090-092>094-051500-
SOUTH-CENTRAL ILLINOIS

CITY           SKY/WX    TMP DP  RH WIND       PRES   REMARKS
CARBONDALE     PTSUNNY   18   5  57 N10       30.48R WCI   6
MARION         PTSUNNY   19   9  63 N12       30.47R WCI   7
MT. VERNON     CLOUDY    16   1  53 N6        30.47R WCI   7
$$

ILZ067-068-072-073-078-083-087-091-051500-
SOUTHEAST ILLINOIS

CITY           SKY/WX    TMP DP  RH WIND       PRES   REMARKS
LAWRENCEVILLE  CLOUDY    17   5  59 N12       30.44R WCI   4
$$

ABBREVIATIONS USED IN REMARKS
   TC - TEMPERATURE IN CELSIUS
  WCI - WIND CHILL INDEX
   HX - HEAT INDEX
  VSB - VISIBILITY
$$



USA.gov is the U.S. government's official web portal to all federal, state and local government web resources and services.